Regional Weather Roundup
Issued by NWS

Home | Current Version | Previous Version | Graphics & Text | Print | Product List | Glossary On
Versions: 1 2 3 4 5 6 7 8 9 10 11 12 13 14 15 16 17 18 19 20 21 22 23 24 25 26 27 28 29 30 31 32 33 34 35 36 37 38 39 40 41 42 43 44 45 46 47 48 49 50
000
ASUS43 KFSD 261602
RWRSD

WEATHER ROUNDUP FOR SOUTH DAKOTA
NATIONAL WEATHER SERVICE SIOUX FALLS SD
1100 AM CDT SAT MAY 26 2018

NOTE: "FAIR" INDICATES FEW OR NO CLOUDS BELOW 12,000 FEET WITH NO
SIGNIFICANT WEATHER AND/OR OBSTRUCTIONS TO VISIBILITY.


SDZ001>005-009-010-012>017-261700-
NORTHWEST AND NORTH CENTRAL SOUTH DAKOTA

CITY           SKY/WX    TMP DP  RH WIND       PRES   REMARKS
BUFFALO          N/A     81  52  36 SE15      29.76F
FAITH            N/A     78  60  53 SE8       29.82F
MOBRIDGE       SUNNY     79  60  52 CALM      29.78S
$$

SDZ012>016-024>037-041>051-057-063-072>074-261700-
SOUTHWEST AND SOUTH CENTRAL SOUTH DAKOTA

CITY           SKY/WX    TMP DP  RH WIND       PRES   REMARKS
RAPID CTY ARPT SUNNY     75  64  68 SE7       29.83F
PIERRE         SUNNY     81  60  48 CALM      29.79F
CUSTER         SUNNY     74  45  35 SE10      29.97F
ELLSWORTH AFB  SUNNY     78  62  58 S9        29.83F
PHILIP         SUNNY     78  64  61 SE3       29.80F
PINE RIDGE     SUNNY     84  56  38 SE14      29.84F
SPEARFISH      LGT RAIN  79  59  50 CALM      29.84F
WINNER         FAIR      84  64  50 S8        29.82F
$$

SDZ004>011-016>023-039-040-261700-
NORTHEAST SOUTH DAKOTA

CITY           SKY/WX    TMP DP  RH WIND       PRES   REMARKS
ABERDEEN       SUNNY     88  53  30 SW5       29.77S
WATERTOWN      SUNNY     81  61  50 NW6       29.79S
BROOKINGS      SUNNY     85  56  37 W15       29.80R
SISSETON         N/A     90  52  27 NW12G21   29.73S
$$

SDZ017-020-022-023-036>040-048>070-261700-
SOUTHEAST SOUTH DAKOTA

CITY           SKY/WX    TMP DP  RH WIND       PRES   REMARKS
SIOUX FALLS    SUNNY     85  60  42 NW8       29.80F
HURON          SUNNY     84  59  42 CALM      29.78F
CHAMBERLAIN    SUNNY     84  63  49 CALM      29.81F
MITCHELL       SUNNY     86  64  47 VRB3      29.80F
YANKTON        SUNNY     86  61  42 SW3       29.81F
$$

ABBREVIATIONS USED IN REMARKS
   TC - TEMPERATURE IN CELSIUS
  WCI - WIND CHILL INDEX
   HX - HEAT INDEX
  VSB - VISIBILITY




USA.gov is the U.S. government's official web portal to all federal, state and local government web resources and services.